カタログに戻る

NOAA 16 DEB

運用中SSO
NORAD 42382·DEBRIS·🇺🇸 United States

打ち上げ Sep 21, 2000 から Vandenberg Space Force Base

Loading…

次のパス (今後24時間)

TLE

最新Source: Space-Track

元期: Sep 14, 2026, 05:52 UTC

1 42382U 00055SA  26257.24505404  .00003286  00000-0  12976-2 0  9991
2 42382  98.8969   1.3180 0035263 278.9935  80.7256 14.29407363541811

AllMySatでNOAA 16 DEBをリアルタイム追跡

Download on the App Store